Regional Weather Roundup
Issued by NWS

Home | Current Version | Previous Version | Graphics & Text | Print | Product List | Glossary On
Versions: 1 2 3 4 5 6 7 8 9 10 11 12 13 14 15 16 17 18 19 20 21 22 23 24 25 26 27 28 29 30 31 32 33 34 35 36 37 38 39 40 41 42 43 44 45 46 47 48 49 50
000
ASUS43 KLMK 281102
RWRKY
KENTUCKY REGIONAL WEATHER ROUNDUP
NATIONAL WEATHER SERVICE LOUISVILLE KY
700 AM EDT FRI AUG 28 2015

NOTE "FAIR" INDICATES FEW OR NO CLOUDS BELOW 12,000 FEET
WITH NO SIGNIFICANT WEATHER AND/OR OBSTRUCTIONS TO VISIBILITY.

KYZ001>023-026-027-061>063-070>075-281200-
WESTERN AND SOUTH CENTRAL KENTUCKY

CITY           SKY/WX    TMP DP  RH WIND       PRES   REMARKS
PADUCAH        FOG       56  54  93 CALM      30.11R VSB 3/4
HENDERSON      CLEAR     54  52  94 CALM      30.12F
OWENSBORO      CLEAR     60  58  93 CALM      30.14R
HOPKINSVILLE   CLEAR     58  55  88 NE2       30.11R
BOWLING GREEN  CLEAR     57  54  89 CALM      30.14R
GLASGOW        CLEAR     56  56 100 N3        30.15R
$$

KYZ024-025-028>034-038-045-046-053-281200-
NORTH CENTRAL KENTUCKY

CITY           SKY/WX    TMP DP  RH WIND       PRES   REMARKS
LOUISVILLE/SDF CLEAR     61  56  83 NE5       30.16S
LOUISVILLE/LOU CLEAR     59  56  89 CALM      30.17S
FORT KNOX      CLEAR     56  54  93 NE5       30.14S
$$

KYZ035>037-039>044-047>052-055>060-089>105-281200-
NORTHEAST KENTUCKY

CITY           SKY/WX    TMP DP  RH WIND       PRES   REMARKS
LEXINGTON      CLEAR     52  49  89 CALM      30.18R
COVINGTON      PTCLDY    56  55  97 CALM      30.18R
FRANKFORT      CLEAR     52  50  93 CALM      30.17R
$$

KYZ054-064>069-076>088-106>120-281200-
SOUTHEAST KENTUCKY

CITY           SKY/WX    TMP DP  RH WIND       PRES   REMARKS
JACKSON        MOCLDY    59  55  87 CALM      30.16R
LONDON         CLEAR     57  52  83 CALM      30.15R
SOMERSET       NOT AVBL
MIDDLESBORO    CLEAR     56  56 100 CALM      30.16R
MONTICELLO     SUNNY     53  53 100 CALM      30.17R FOG
$$




USA.gov is the U.S. government's official web portal to all federal, state and local government web resources and services.